Flag for Australia Weather past 2 weeks in Darwin, Northern Territory, Australia

Now
77 °F

Clear.


Feels Like: 78 °F
Forecast: 76 / 90 °F
Wind: 5 mph from Northwest

Location: Darwin Airport


UV Index: 5 (Moderate)

Visibility: 10 mi


Pressure: 29.83 "Hg

Humidity: 94%

Dew point: 75 °F

Location of DarwinLocation

Historic Weather in Darwin

°F

Darwin temperature yesterday

Maximum temperature yesterday: 93 °F (at 2:00 PM)
Minimum temperature yesterday: 75 °F (at 3:00 AM)
Average temperature yesterday: 83 °F

Past Weeks' High & Low Weather Summary

 TemperatureHumidityPressure
High93 °F (Apr 13, 2:00 PM)100% (Apr 2, 4:26 AM)29.89 "Hg (Apr 2, 4:26 AM)
Low73 °F (Apr 7, 12:00 AM)34% (Apr 16, 4:00 PM)29.65 "Hg (Apr 12, 3:30 PM)
Average82 °F81%29.79 "Hg
* Reported Apr 2 12:30 AM — Apr 17 12:30 AM, Darwin, Weather by CustomWeather, © 2014

Note: Actual official high and low records may vary slightly from our data, if they occured in-between our weather recording intervals... More about our weather records

Advertising

Historic Weather Conditions — Data for Previous 24 hours

 ConditionsComfort  
Time TempWeatherWind HumidityBarometerVisibility
12:30 AM
Apr 17
77 °FClear.3 mph94%29.83 "Hg10 mi
12:00 AM79 °FClear.5 mph89%29.83 "Hg10 mi
11:30 PM
Apr 16
79 °FClear.6 mph89%29.83 "Hg10 mi
10:30 PM79 °FClear.6 mph89%29.83 "Hg10 mi
10:00 PM79 °FClear.6 mph89%29.83 "Hg10 mi
9:30 PM79 °FClear.6 mph89%29.83 "Hg10 mi
9:00 PM81 °FClear.5 mph84%29.83 "Hg10 mi
8:30 PM81 °FClear.5 mph84%29.80 "Hg10 mi
8:00 PM82 °FClear.5 mph79%29.80 "Hg10 mi
7:30 PM82 °FClear.6 mph79%29.77 "Hg10 mi
7:00 PM84 °FSunny.7 mph70%29.77 "Hg10 mi
6:30 PM86 °FPartly sunny.7 mph62%29.77 "HgN/A
6:00 PM90 °FPartly sunny.8 mph55%29.77 "HgN/A
5:30 PM90 °FPartly sunny.9 mph55%29.77 "HgN/A
5:00 PM90 °FPartly sunny.8 mph63%29.74 "HgN/A
4:30 PM90 °FPartly sunny.10 mph59%29.74 "HgN/A
4:00 PM91 °FPartly sunny.10 mph34%29.74 "HgN/A
3:30 PM91 °FPartly sunny.5 mph46%29.74 "HgN/A
3:00 PM91 °FPartly sunny.8 mph38%29.77 "HgN/A
2:30 PM91 °FPartly sunny.9 mph36%29.77 "HgN/A
2:00 PM93 °FPartly sunny.12 mph36%29.77 "HgN/A
1:30 PM91 °FPartly sunny.10 mph36%29.77 "HgN/A
1:00 PM91 °FPartly sunny.9 mph36%29.80 "HgN/A
12:30 PM91 °FPartly sunny.9 mph38%29.80 "HgN/A
12:00 PM91 °FPartly sunny.9 mph36%29.83 "HgN/A
11:30 AM90 °FScattered clouds.8 mph43%29.83 "HgN/A
11:00 AM88 °FScattered clouds.8 mph43%29.86 "HgN/A
10:30 AM88 °FScattered clouds.9 mph52%29.86 "HgN/A
8:30 AM81 °FPartly sunny.7 mph89%29.86 "HgN/A
8:00 AM79 °FPartly sunny.7 mph94%29.86 "HgN/A
7:30 AM77 °FPartly sunny.7 mph94%29.86 "HgN/A
6:00 AM77 °FClear.6 mph94%29.83 "Hg10 mi
5:30 AM77 °FClear.5 mph94%29.83 "Hg10 mi
5:00 AM75 °FClear.6 mph100%29.83 "Hg10 mi
4:30 AM75 °FClear.5 mph94%29.83 "Hg10 mi
4:00 AM77 °FClear.No wind94%29.83 "Hg10 mi
3:30 AM77 °FClear.No wind94%29.83 "Hg10 mi
3:00 AM75 °FClear.No wind100%29.83 "Hg10 mi
2:30 AM77 °FClear.No wind94%29.83 "Hg10 mi
2:00 AM77 °FClear.No wind94%29.83 "Hg10 mi
1:30 AM77 °FClear.No wind94%29.83 "Hg10 mi
1:00 AM77 °FClear.No wind94%29.83 "Hg10 mi
Weather by CustomWeather, © 2014

See weather overview